Theta_e
353 354 353 353 354 347 342 339 320 327 326 318 321 324 320 335 333 331 330 335 331 340 340 340 337 337 335 330 334 335 334 331 331 320 321 339 354 355 359 359 358 357 357 361 361 361 360 358 358 359 361 363 364 364 364 364 365 365 365 366 366 365 363 361 361 362 363 363 361 362 362 364 363 364 364 362 361 361 362 361 358 356 356 356 356 355 355 356 358 359 358 357 358 361 362 362 361
350 351 349 351 347 345 333 339 323 322 321 319 322 326 324 332 333 330 329 333 335 337 338 339 339 339 339 336 334 335 334 336 340 339 344 348 354 355 355 359 358 357 358 360 359 358 358 362 362 362 362 363 364 364 364 364 364 365 366 366 365 364 364 362 363 362 362 363 362 363 363 362 362 363 363 361 359 360 361 361 361 361 359 358 358 358 356 357 359 360 359 359 359 361 362 362 362
350 350 348 350 347 342 342 341 320 321 316 315 322 326 332 328 329 332 335 336 338 338 339 337 338 339 335 335 330 329 327 341 342 343 344 352 348 351 357 359 359 359 359 359 360 362 362 364 362 363 363 363 363 364 365 364 364 365 365 365 365 364 363 362 363 362 363 363 364 362 361 362 362 362 362 361 361 359 359 360 361 360 359 359 358 360 360 359 359 360 358 358 360 361 361 362 362
360 350 347 347 338 345 333 331 327 320 315 317 319 329 330 329 331 336 337 338 337 338 336 335 334 337 339 329 331 337 335 337 343 344 342 346 348 353 356 358 361 359 359 359 360 359 363 363 363 362 363 363 363 364 364 363 364 365 365 364 364 364 364 362 362 362 362 362 362 361 361 361 362 361 361 361 360 359 359 360 359 359 359 359 359 359 360 360 360 360 359 360 361 361 361 361 361
355 350 352 345 338 331 332 327 326 326 316 321 319 329 330 332 334 337 337 338 337 338 338 340 338 343 344 337 337 333 333 342 342 346 346 347 353 354 355 352 356 357 358 360 360 361 361 362 362 362 363 364 363 363 364 363 363 365 364 364 363 364 364 362 362 363 362 362 362 361 361 361 361 361 362 361 360 359 360 360 360 359 360 360 360 360 360 359 360 360 360 360 361 361 362 362 361
350 350 355 350 335 348 337 323 320 322 327 329 325 327 333 335 336 337 336 338 340 340 339 339 334 334 335 336 338 333 340 334 342 345 350 347 351 355 355 356 354 354 359 361 362 362 363 362 363 363 364 364 363 363 364 364 364 364 363 364 364 364 363 363 362 361 362 361 361 361 361 361 361 361 360 359 359 360 360 360 360 360 360 360 360 361 361 361 359 360 359 360 360 361 361 362 361
348 349 348 348 342 342 327 321 321 325 325 335 328 331 336 338 338 337 337 337 342 342 343 337 338 334 331 336 339 343 346 347 344 345 350 353 355 355 356 356 355 354 358 362 364 362 363 362 363 364 364 363 363 363 364 364 363 364 364 364 364 363 363 362 362 362 362 361 361 361 361 361 360 361 360 360 360 360 360 360 360 360 360 359 360 360 361 361 360 360 359 360 360 360 361 362 362
356 343 344 333 329 334 325 325 324 328 327 335 334 332 336 339 339 339 335 335 335 337 337 337 338 335 333 340 330 341 345 347 349 352 353 354 355 356 356 354 356 356 358 363 365 363 367 363 363 364 364 364 364 364 363 362 363 363 364 364 363 362 362 362 361 362 362 361 361 361 360 360 361 361 360 360 360 360 360 360 360 360 359 359 358 360 360 360 359 358 359 359 359 360 361 361 361
351 345 348 332 325 329 324 322 325 334 332 336 337 341 340 340 340 338 336 336 339 337 334 336 335 333 332 333 334 340 344 349 351 353 353 354 353 355 355 355 355 354 358 362 363 363 365 363 363 364 364 364 364 363 362 363 364 363 363 362 362 361 362 361 361 360 360 359 361 360 360 359 360 360 360 360 359 359 358 359 359 360 359 358 359 359 360 359 359 360 359 359 360 360 360 361 361
345 342 330 329 331 323 322 324 326 330 331 335 337 339 342 342 339 341 337 335 337 335 337 340 339 334 335 332 335 339 342 350 350 350 352 352 353 354 355 355 358 356 358 361 363 362 363 366 363 364 364 364 363 362 363 364 363 363 362 361 361 361 360 361 360 357 358 358 360 360 359 359 360 360 360 359 358 358 358 358 359 358 358 358 357 360 360 360 360 360 359 360 360 360 360 360 360
338 344 343 328 323 320 318 322 328 330 332 335 336 343 340 343 341 337 339 337 338 336 338 339 335 334 334 335 337 346 348 349 347 346 349 351 353 353 354 357 359 361 357 361 362 364 363 365 366 363 363 364 363 363 363 363 362 362 362 362 361 362 360 358 356 354 353 355 358 359 359 359 359 359 360 359 357 357 356 357 357 356 356 357 359 360 360 359 360 360 359 359 359 360 359 361 361
331 335 336 322 321 321 322 326 328 330 334 336 333 338 341 340 340 336 337 333 336 336 336 339 334 339 333 332 335 342 344 345 346 347 348 349 350 351 357 357 358 360 360 361 359 361 362 365 364 365 364 363 362 361 361 361 361 362 361 361 361 361 361 361 358 357 354 352 355 357 358 359 359 359 359 358 357 356 356 356 356 355 354 356 359 360 361 359 360 360 360 361 361 360 360 361 362
336 338 329 326 324 326 325 327 327 328 331 331 333 339 343 338 337 337 338 336 336 335 335 340 340 339 329 332 340 341 340 344 346 347 348 349 350 351 352 356 356 357 359 359 360 359 357 361 362 362 363 361 361 361 361 360 361 361 361 361 361 361 361 361 361 357 353 353 355 355 357 358 358 357 357 356 356 356 355 355 354 356 356 358 361 362 361 361 361 361 361 360 361 361 360 361 361
339 337 335 323 331 328 325 326 330 325 325 333 340 342 343 340 340 339 337 334 335 335 339 341 341 340 334 335 337 337 340 344 345 346 348 349 350 349 351 353 355 357 357 358 358 359 360 361 360 362 364 364 362 361 360 360 359 360 360 360 360 360 360 361 361 360 356 356 355 356 354 357 359 359 357 356 356 357 355 355 353 353 359 361 360 361 362 361 362 362 362 361 361 361 361 361 362
338 342 338 328 324 325 329 323 325 325 324 335 339 340 342 342 342 341 339 332 333 342 343 347 343 337 328 331 331 337 340 345 346 347 348 349 349 350 351 352 355 357 358 358 359 361 359 360 363 364 365 364 365 364 361 358 356 359 360 359 359 360 360 361 361 360 359 359 357 356 358 358 356 357 357 355 354 357 356 357 359 360 361 363 360 361 362 362 362 362 362 361 361 361 362 362 362
345 345 334 324 321 324 327 327 329 327 326 336 342 342 340 340 344 340 340 342 340 343 344 337 344 337 334 334 336 340 343 346 347 348 348 348 349 350 350 351 352 356 358 358 359 359 359 359 362 363 365 367 365 362 362 358 355 357 357 357 357 357 359 360 359 360 360 359 358 358 355 356 356 357 356 355 356 359 360 361 362 363 362 362 361 361 362 361 362 362 362 363 363 362 362 362 362
345 343 328 324 320 325 325 325 328 323 331 335 343 340 335 336 346 347 350 347 339 338 341 342 339 341 337 337 342 344 346 348 348 348 347 348 348 347 349 349 351 355 357 359 360 360 358 359 362 364 364 365 366 365 361 359 356 356 357 358 357 357 358 358 359 360 361 358 356 354 354 354 355 356 357 362 360 362 361 362 362 362 362 361 360 360 360 361 361 362 362 363 363 362 362 361 361
344 332 328 323 325 323 328 328 334 333 333 336 337 340 338 335 342 345 347 343 343 342 339 342 344 342 341 342 345 346 346 347 348 346 345 345 346 345 345 348 349 352 356 357 360 361 359 360 360 362 362 365 366 366 361 358 358 356 356 355 355 356 355 358 359 360 362 361 361 362 366 365 363 360 365 364 363 363 363 363 363 362 361 360 361 361 361 362 362 362 363 363 363 363 362 358 360
337 331 327 322 329 329 336 334 336 334 333 337 338 343 341 339 343 344 336 337 341 339 339 339 338 339 341 343 345 345 346 346 346 346 344 343 343 343 343 347 348 351 354 357 359 360 362 361 360 359 361 365 361 359 360 362 358 358 357 357 357 356 360 359 362 360 359 362 361 359 364 365 361 364 365 365 364 363 362 363 363 363 362 361 362 361 361 361 361 361 361 362 363 362 365 358 355
338 331 326 326 333 335 339 338 340 341 339 338 338 340 342 343 341 344 340 338 340 336 334 337 335 335 337 340 343 343 344 344 345 344 343 343 344 343 344 344 347 351 352 354 357 358 361 361 361 362 364 363 364 365 358 361 362 363 364 364 357 357 358 361 359 359 359 358 358 359 364 364 364 364 364 365 364 362 363 363 363 364 363 362 362 361 361 361 361 360 360 359 361 362 365 363 356
336 332 326 326 331 330 336 343 339 343 342 340 339 339 339 343 341 344 340 336 336 335 338 337 335 336 337 339 340 341 341 341 342 342 341 342 343 344 344 345 346 350 351 353 356 355 357 363 362 363 363 365 366 365 365 365 357 356 362 360 367 361 360 358 364 363 361 359 360 359 361 362 360 363 365 362 364 364 362 362 364 363 365 363 362 361 361 362 362 361 360 360 364 363 361 358 360
335 330 330 331 332 328 335 340 341 340 342 342 340 338 336 343 341 339 340 334 332 334 337 340 340 338 338 338 338 339 339 340 341 341 341 341 342 342 344 346 347 349 351 350 352 355 357 362 364 363 364 363 364 364 363 364 365 362 360 363 366 363 361 361 362 362 363 363 367 355 356 359 359 364 359 358 360 362 363 363 362 364 366 365 363 360 359 358 360 359 360 360 362 362 359 360 356
327 331 330 331 330 329 332 337 339 342 341 341 339 342 344 339 337 340 337 336 340 340 341 341 342 341 340 340 339 338 338 339 339 339 340 339 341 343 343 344 345 347 348 348 352 355 357 361 364 364 363 363 363 364 365 364 364 360 361 363 361 361 362 361 361 363 364 365 364 365 364 358 361 362 360 358 360 359 361 361 363 364 359 360 363 359 359 361 360 359 360 360 361 358 356 359 359
333 328 329 328 329 327 330 332 339 342 343 340 343 343 339 339 333 342 340 342 343 342 342 342 343 341 340 338 338 337 338 338 337 339 340 340 341 342 343 343 345 348 348 349 351 353 356 360 364 363 364 362 361 362 364 364 364 364 363 364 363 362 361 361 362 363 366 368 368 362 363 363 361 363 354 355 365 360 359 360 362 361 359 357 359 358 358 360 359 360 360 360 360 360 353 359 354
331 328 329 328 330 327 329 332 337 340 342 343 343 339 337 341 339 340 338 341 344 342 341 342 341 340 338 337 337 337 338 338 337 339 339 341 342 342 343 343 345 345 346 349 351 352 355 360 363 363 364 366 365 363 360 360 362 362 363 362 362 363 362 362 361 365 363 365 368 367 364 366 362 362 359 358 359 361 359 361 360 360 358 360 359 357 358 359 359 359 360 361 358 358 360 361 356
332 330 329 327 325 327 326 327 335 340 341 342 337 338 343 344 344 339 339 342 342 342 340 341 339 337 336 337 337 337 338 338 337 338 339 339 342 341 342 343 343 341 346 350 350 352 356 359 360 361 362 363 363 361 363 360 361 359 364 364 363 364 360 362 363 361 362 361 366 370 364 360 359 362 357 361 360 361 360 358 358 358 356 361 358 360 360 361 362 359 361 361 356 356 358 357 355
333 329 327 324 326 328 329 327 333 339 342 344 338 337 338 343 340 330 340 342 343 341 339 340 337 336 336 337 337 338 337 337 338 338 339 339 341 340 341 343 341 343 346 349 348 351 353 358 358 361 362 363 361 359 363 360 360 359 363 361 363 363 361 364 362 361 361 362 364 369 369 367 360 361 361 360 359 358 359 361 358 361 359 357 360 361 362 362 361 362 360 361 355 355 356 355 354
328 326 325 325 328 328 330 332 335 340 340 343 342 336 340 341 335 333 337 342 342 339 337 337 337 337 336 337 338 339 338 338 339 338 337 339 339 340 341 343 341 343 345 347 350 353 352 354 356 359 361 360 361 360 363 359 360 360 362 361 362 361 364 362 360 363 363 364 366 370 370 366 364 364 365 363 360 359 363 361 360 359 359 360 362 362 360 362 363 363 363 361 359 358 358 359 358
327 326 321 322 326 326 332 331 335 337 337 344 342 335 331 333 333 338 341 343 341 338 338 336 336 336 337 337 338 338 338 338 339 337 337 340 341 341 341 342 342 343 345 348 351 352 350 353 355 358 359 362 361 357 358 358 358 358 359 362 363 360 364 363 361 362 365 367 371 371 369 370 369 363 369 363 360 359 358 359 361 362 363 364 364 368 365 365 362 362 364 365 366 361 359 360 359
327 325 323 321 323 323 332 335 336 337 338 343 340 318 325 332 338 340 341 342 340 337 336 337 336 336 336 336 337 337 339 339 338 338 338 339 340 340 340 341 343 344 345 349 350 349 351 353 355 356 358 360 360 356 358 356 357 357 361 361 363 363 361 361 362 365 366 366 369 371 369 370 369 368 367 367 364 358 359 361 359 361 363 366 365 369 365 363 360 359 361 362 359 359 358 359 355
321 324 323 317 318 319 328 333 333 335 338 342 339 321 324 333 335 340 340 342 339 336 336 337 337 337 336 336 336 337 339 340 339 339 338 339 340 341 341 341 343 344 346 347 347 349 350 353 353 354 358 357 358 357 357 357 356 356 361 361 360 365 363 361 361 363 364 364 366 366 370 370 372 371 370 368 362 360 357 359 360 360 365 366 363 367 365 361 362 361 363 359 362 358 358 360 356
324 319 314 318 316 321 326 334 335 329 333 339 332 323 323 330 333 341 341 340 340 338 335 336 337 337 337 335 335 336 338 339 339 339 339 338 340 340 340 340 341 344 346 348 347 350 351 353 354 355 356 357 358 359 359 357 355 357 361 360 361 365 360 362 360 362 365 364 365 367 374 372 374 373 373 370 362 360 358 358 367 365 368 364 363 366 366 361 362 361 363 362 357 355 359 357 359
323 319 315 315 317 319 320 327 335 339 332 339 334 326 326 328 337 339 342 340 340 338 338 337 337 338 337 337 336 336 337 337 339 339 339 338 339 341 340 341 341 345 346 348 348 350 352 353 354 353 353 354 357 358 360 359 358 358 362 360 358 364 360 361 361 363 364 365 365 366 370 370 376 370 375 373 367 360 361 361 361 364 366 363 365 366 361 362 360 359 363 364 361 359 354 353 356
319 320 317 317 315 317 317 327 334 334 331 328 330 328 327 329 335 338 340 339 339 337 338 338 338 338 339 338 335 335 337 336 337 339 338 340 340 340 339 344 343 345 347 348 349 350 351 352 352 352 354 353 357 359 361 358 358 361 361 361 362 361 358 359 361 362 363 362 366 367 368 371 373 372 375 372 369 361 360 360 362 365 365 366 366 366 365 363 364 362 362 364 363 363 356 355 353
315 317 315 314 317 317 320 318 328 333 334 327 328 328 328 331 334 338 338 342 338 337 338 338 339 338 339 338 335 336 336 336 336 340 341 340 340 340 340 342 343 345 346 347 349 352 352 352 352 354 353 354 356 360 363 360 359 361 360 362 360 362 363 359 361 361 361 364 364 369 370 370 370 370 371 371 370 362 362 363 363 367 364 364 366 364 363 363 362 363 359 363 365 362 358 358 357
318 319 316 315 312 315 319 322 325 330 329 325 326 326 327 332 334 335 335 340 337 338 337 338 340 340 340 339 336 336 335 335 338 342 343 342 341 340 341 342 343 345 346 349 351 352 354 353 353 355 355 354 357 360 361 356 355 354 355 357 357 361 362 361 363 361 363 361 365 365 371 370 368 370 370 372 371 366 363 364 366 366 363 365 365 360 360 363 363 364 362 359 362 361 362 360 361
321 320 318 315 315 316 322 325 327 328 327 324 329 327 328 328 332 333 335 338 339 336 336 337 338 341 341 339 338 336 337 335 338 341 342 343 341 341 343 343 343 345 347 350 351 351 352 353 355 355 355 357 356 355 354 352 353 351 355 352 353 355 361 361 360 362 361 362 366 368 370 369 369 369 370 370 369 367 367 366 365 363 366 362 359 362 366 366 370 367 365 365 362 362 357 359 358
318 318 318 315 315 313 321 325 327 327 326 324 326 329 330 329 331 333 337 338 338 336 337 338 338 340 341 341 341 338 338 339 339 340 341 342 342 341 343 342 346 343 347 349 350 352 354 354 355 357 356 356 356 355 353 352 355 352 353 352 352 353 359 358 358 361 359 363 369 368 369 369 369 370 369 372 371 368 370 365 365 360 367 366 367 370 371 369 367 364 363 362 365 358 356 354 353
317 316 316 314 314 315 315 319 325 325 325 325 326 324 326 329 331 334 334 335 338 338 340 341 339 339 341 343 341 341 339 338 338 339 342 341 343 342 344 342 344 344 346 349 352 352 353 353 356 358 357 356 356 357 355 354 355 355 355 354 354 353 359 361 358 359 359 361 364 367 370 369 369 368 370 370 370 369 369 366 367 363 359 365 365 366 367 372 370 363 363 361 355 360 355 355 355
316 316 313 311 315 311 308 314 320 323 322 320 321 319 324 327 330 333 330 331 338 338 340 342 346 344 342 341 341 342 339 339 337 339 339 340 342 344 344 344 344 345 347 348 349 351 350 354 356 358 357 358 358 357 358 357 358 359 359 360 359 360 359 362 364 363 363 362 362 364 368 369 368 366 366 367 367 369 366 364 365 366 362 370 369 368 367 370 369 366 363 364 364 348 347 350 354
316 316 315 314 314 313 314 312 318 321 323 322 320 316 318 324 321 324 327 331 333 338 341 338 343 346 346 346 343 344 343 342 339 339 339 340 341 343 344 345 345 344 346 347 348 348 348 352 356 360 358 357 360 360 360 360 359 360 360 362 363 364 362 362 361 360 361 362 363 362 363 367 367 366 365 366 365 369 367 364 365 367 367 367 368 365 368 362 364 364 367 361 363 352 346 348 352
313 316 316 316 316 315 314 315 315 313 313 316 316 308 310 317 318 321 324 327 329 334 337 338 340 343 343 342 342 347 344 346 343 341 340 341 342 344 346 347 344 344 346 347 348 348 349 351 357 360 360 358 358 361 362 361 360 359 358 357 355 358 356 355 354 357 355 355 355 358 364 363 363 365 366 366 366 367 371 371 369 367 369 370 368 363 365 365 367 364 362 363 355 360 356 346 346
310 312 318 317 317 315 313 312 312 308 307 314 319 308 305 316 317 323 326 326 329 332 333 336 341 340 342 344 341 344 346 343 346 346 342 341 342 344 346 347 346 344 347 347 348 349 350 352 359 360 360 359 359 363 363 362 361 361 359 356 355 354 352 354 358 359 357 355 359 360 362 363 363 364 365 368 367 369 370 373 373 369 368 366 369 369 366 362 361 364 362 363 360 361 359 350 347
308 317 318 317 316 314 314 313 312 312 315 316 317 314 308 309 316 323 329 328 329 329 333 335 340 342 341 342 344 345 344 345 345 346 345 343 345 345 346 347 345 344 347 347 347 348 352 356 359 361 360 359 360 364 362 363 363 361 359 356 354 353 352 354 358 360 360 360 360 361 360 362 363 365 364 368 369 369 373 372 370 370 367 366 367 366 362 360 363 365 365 366 366 362 361 356 352
312 317 318 316 316 316 315 314 313 314 311 306 310 315 309 310 317 323 326 326 327 329 329 334 335 337 339 341 341 343 345 346 346 344 346 344 345 346 348 349 348 345 345 346 347 349 352 357 361 361 360 361 361 365 364 363 364 361 360 357 355 354 354 355 359 360 361 362 361 361 362 362 362 366 366 364 369 369 370 370 368 372 368 367 368 367 364 364 365 366 363 365 363 360 361 363 359
314 316 318 318 318 317 316 314 312 312 309 305 310 313 307 308 319 323 326 323 323 326 329 332 335 336 337 340 343 343 344 343 345 345 347 348 349 348 349 350 347 345 346 347 349 350 353 358 361 362 361 361 361 365 365 364 363 362 360 358 357 356 356 356 357 357 360 362 362 365 366 367 360 362 367 368 367 370 368 372 370 367 369 366 362 364 366 365 367 366 366 363 363 360 362 360 359
318 316 313 314 314 314 315 314 313 310 303 306 312 313 311 306 312 320 318 320 324 327 330 333 333 338 339 342 342 342 346 347 344 346 348 348 350 350 351 349 348 346 347 349 348 350 354 357 361 363 363 362 363 365 367 365 363 361 360 359 359 358 358 357 357 358 360 362 361 363 364 366 366 361 363 366 366 367 369 369 367 366 366 367 366 368 366 362 361 362 364 366 365 363 361 360 359
314 312 310 310 309 312 311 310 312 303 302 309 312 312 312 304 311 320 323 325 327 328 329 331 332 334 337 342 343 344 345 347 347 347 347 350 351 350 350 350 350 347 347 348 349 350 353 359 362 363 363 363 363 366 366 364 361 361 361 361 360 360 360 356 357 358 359 361 361 360 363 364 365 364 365 363 364 363 369 367 368 368 367 369 363 367 367 365 363 364 366 365 366 364 365 364 361
312 310 309 304 301 304 300 305 301 301 301 309 312 313 308 308 315 321 323 326 327 330 330 332 333 334 336 338 342 347 347 345 347 345 346 349 349 349 349 350 351 350 347 350 350 350 353 357 363 363 363 364 364 366 365 364 361 360 360 360 361 363 361 359 359 358 360 361 359 359 362 361 363 363 362 363 360 364 368 368 366 368 370 370 371 370 371 372 371 366 368 364 366 365 364 364 360
309 307 305 302 298 298 295 300 304 303 307 311 311 314 306 315 319 324 323 326 329 330 332 334 335 335 338 339 339 343 343 345 345 344 345 345 349 350 351 351 350 351 350 349 351 352 353 355 362 364 365 365 366 366 366 362 362 361 362 361 361 362 362 360 358 356 357 359 360 360 360 359 361 360 359 361 359 361 362 366 368 369 374 372 372 376 377 370 372 370 369 368 365 367 368 364 363
308 310 308 304 304 299 296 299 297 300 303 307 313 307 307 308 312 325 325 327 329 330 332 334 335 337 338 339 342 344 346 347 347 345 344 346 348 350 350 352 353 353 352 351 352 354 355 355 361 365 366 366 367 366 366 363 360 361 362 361 361 362 361 359 357 355 356 356 357 359 360 358 357 358 357 361 363 362 362 364 366 367 369 372 371 373 371 377 373 370 373 370 370 369 366 367 364
310 310 311 306 304 309 300 303 303 303 302 303 306 307 312 312 322 326 327 326 328 329 330 331 333 334 337 337 338 340 341 341 343 348 345 346 349 350 350 350 350 352 353 354 354 354 355 356 361 365 366 367 368 368 367 364 363 362 363 363 361 362 362 360 360 359 357 357 359 357 360 360 357 355 359 361 360 362 363 362 365 364 368 367 370 372 373 370 374 368 372 372 369 367 368 369 367
307 308 304 307 312 309 305 306 307 307 304 301 309 310 315 319 322 325 325 325 325 327 328 329 331 332 335 334 336 337 340 340 343 344 344 347 347 350 349 348 348 350 350 351 353 355 357 358 360 362 365 366 366 368 367 368 366 363 363 363 361 361 360 359 355 358 353 357 360 358 356 357 357 357 355 358 360 363 364 363 362 360 364 366 366 368 368 370 376 369 370 373 368 366 369 368 367
308 303 307 313 314 312 307 300 303 301 298 301 305 306 308 310 308 323 323 322 323 323 325 326 330 331 332 332 334 336 338 340 343 347 348 349 349 349 350 351 350 351 352 352 357 357 359 358 359 362 365 366 364 367 365 366 367 364 364 364 363 361 359 358 355 355 356 355 357 359 355 355 355 354 354 353 358 360 363 363 362 361 362 363 363 363 365 367 371 370 370 374 371 370 371 373 368
307 306 312 305 300 300 306 304 297 297 296 300 303 307 309 309 310 318 318 319 320 322 324 326 326 328 329 331 333 336 338 340 341 343 346 348 349 351 352 350 350 351 352 352 353 355 355 357 361 362 363 363 361 360 363 364 366 363 363 364 363 360 358 358 356 357 358 354 353 355 355 353 355 356 356 357 356 357 359 360 363 361 361 362 362 362 364 366 368 367 367 368 369 371 370 373 371
312 311 309 312 308 305 303 305 306 305 299 299 300 305 303 311 313 317 317 319 320 321 321 323 325 327 328 329 330 333 335 338 340 342 342 344 348 349 352 350 352 355 352 352 351 354 356 358 360 360 358 360 362 364 363 363 363 363 361 366 366 364 362 358 358 357 354 355 355 351 354 351 353 352 355 355 354 355 357 357 356 356 354 358 360 360 360 363 365 365 363 360 363 367 366 366 365
304 305 305 306 306 311 309 308 305 303 301 300 300 298 306 313 319 318 318 319 320 321 321 323 325 327 328 329 330 332 334 337 340 342 344 345 348 348 348 352 352 354 355 354 355 354 356 355 355 356 355 355 361 359 359 364 362 363 363 365 365 365 361 358 358 356 356 356 357 356 353 353 355 353 353 355 356 357 357 356 353 355 352 356 360 359 360 362 364 365 364 363 363 366 365 364 364
305 304 303 306 303 303 300 300 307 305 302 298 299 298 307 315 321 319 319 320 320 322 322 322 325 326 328 329 330 331 332 335 337 339 342 345 348 350 347 351 355 351 351 350 351 354 355 355 354 356 355 357 356 353 356 362 364 362 360 363 363 364 363 360 357 356 356 355 357 357 356 354 350 354 354 353 358 357 356 355 353 353 356 353 359 361 357 358 361 362 363 358 359 362 364 364 364
Wind_Speed
9 10 9 11 9 7 5 4 4 4 3 3 5 2 4 5 6 9 10 11 9 5 10 11 10 3 6 11 14 12 9 6 6 1 9 10 14 14 14 16 16 16 15 12 12 12 11 14 16 15 13 14 14 14 14 13 12 11 11 11 11 12 13 9 10 11 11 10 11 11 11 11 11 12 13 14 13 11 13 14 12 10 12 12 9 8 9 11 12 13 10 10 9 12 15 15 13
9 11 7 5 6 6 5 4 3 3 3 4 4 7 9 8 4 9 10 6 8 9 11 10 10 7 11 15 14 14 16 14 16 16 14 15 16 15 16 15 15 16 14 14 14 15 13 13 12 13 13 14 14 14 13 12 11 11 11 11 12 12 12 12 12 11 10 11 12 12 12 11 12 12 14 12 12 12 12 12 12 11 12 11 9 9 8 9 11 13 11 10 11 11 12 15 15
11 7 5 5 5 3 3 1 3 1 2 3 5 8 8 8 10 9 11 9 12 13 12 12 9 8 12 11 11 12 12 16 22 21 14 17 16 13 16 15 14 15 15 12 12 12 11 11 9 12 14 13 13 13 12 12 10 10 11 11 11 12 12 11 11 11 12 13 13 12 11 11 12 13 13 11 11 11 12 11 12 13 12 10 9 10 9 9 10 12 12 12 12 11 11 13 15
10 6 4 4 5 5 2 1 2 1 2 4 7 5 11 9 8 6 11 12 13 13 12 12 10 1 4 16 16 17 15 13 16 19 14 11 10 14 15 15 14 14 13 11 11 12 10 12 9 11 13 13 13 12 12 11 10 10 11 11 11 11 12 12 12 12 13 13 12 12 12 11 12 13 13 11 11 11 12 12 13 12 12 10 10 10 10 9 9 11 11 10 13 13 13 13 13
10 6 3 5 3 3 2 3 0 3 3 3 7 6 11 12 9 8 12 12 13 12 11 11 10 12 12 11 10 8 13 16 17 13 14 16 19 16 17 19 15 14 13 13 11 12 13 13 10 12 12 13 12 12 11 10 10 9 10 11 11 12 13 12 11 12 13 13 12 12 12 11 12 12 12 12 11 12 11 12 12 13 11 11 11 12 11 10 10 11 10 9 11 13 14 14 14
7 5 3 4 4 5 3 3 2 2 3 4 7 9 11 13 12 12 13 13 12 10 11 10 10 12 12 14 10 13 15 11 14 13 15 18 22 21 19 14 14 15 13 12 11 11 13 15 13 12 11 12 13 12 10 10 9 10 11 11 12 13 12 12 11 12 13 12 12 12 12 12 11 11 11 11 11 11 12 12 13 10 10 10 11 12 13 12 12 11 10 10 11 12 14 15 15
5 5 5 4 6 3 2 4 3 3 9 5 9 10 10 12 13 14 15 14 9 9 6 11 13 15 12 11 14 11 14 15 12 14 14 20 21 19 19 14 14 16 14 12 12 13 15 14 12 12 12 12 12 12 11 10 11 11 11 11 12 13 12 11 11 11 12 12 12 13 12 11 11 11 11 11 11 11 12 13 12 12 13 11 10 12 13 12 12 11 11 11 11 12 14 15 15
2 6 1 6 2 5 4 3 3 1 4 7 7 12 11 11 13 13 15 12 11 8 11 11 10 12 15 13 14 14 16 14 17 19 21 19 20 18 19 17 15 15 13 12 12 12 14 13 11 12 12 12 12 11 11 11 12 11 11 11 11 12 12 11 11 11 12 12 12 12 12 11 10 10 10 11 11 11 12 12 12 13 14 13 11 12 14 13 12 12 12 11 11 12 13 14 15
6 5 2 3 4 2 4 1 5 7 8 8 10 7 11 11 12 13 13 11 11 11 13 12 14 11 13 18 14 13 14 18 20 22 21 20 19 17 12 15 15 15 13 13 13 13 12 12 11 11 12 12 11 11 11 12 12 11 10 10 11 12 13 12 10 10 12 12 11 11 12 11 10 9 9 9 9 11 13 13 12 13 14 13 12 12 14 14 13 13 12 11 11 11 13 13 14
4 4 2 5 3 1 2 4 5 6 9 8 11 10 6 9 12 10 13 14 10 14 12 13 14 15 17 18 15 12 14 20 22 20 19 18 19 18 16 15 15 18 15 13 13 13 11 12 11 11 12 12 11 12 13 12 12 12 11 10 9 11 13 13 12 7 9 11 12 11 11 11 10 10 10 8 9 11 13 13 13 13 12 13 10 11 14 14 13 12 12 12 11 12 13 13 13
5 5 6 4 2 3 3 5 7 10 8 8 7 5 9 7 11 12 11 12 13 12 13 14 15 17 14 14 12 13 19 20 20 21 20 17 16 20 16 14 14 15 16 15 14 13 13 12 15 13 13 13 14 13 12 12 11 12 11 9 9 11 12 14 15 10 6 8 11 12 11 11 10 10 10 10 9 10 12 13 13 14 14 9 10 13 14 14 14 13 13 13 13 12 13 13 12
4 3 2 2 2 1 6 8 10 9 10 9 4 3 5 9 7 11 12 13 12 12 13 12 12 16 16 14 12 14 20 20 19 19 19 18 15 19 18 13 14 14 16 16 16 14 14 14 12 14 16 14 13 12 12 11 11 11 11 10 10 10 10 13 17 18 10 5 7 12 12 12 12 10 10 10 10 11 10 11 15 15 10 11 13 17 15 14 14 13 13 13 13 13 13 13 12
7 2 4 3 1 2 5 9 9 10 9 9 10 6 5 10 8 11 12 12 12 12 10 13 16 12 14 13 12 16 19 19 19 18 18 15 15 14 19 15 15 15 13 14 14 14 15 13 12 12 12 16 14 12 11 10 10 11 11 10 9 10 11 11 13 18 17 7 6 9 12 12 13 11 11 10 10 11 11 11 12 13 12 13 15 15 15 14 14 13 13 13 13 13 13 13 12
3 5 1 3 2 3 4 8 9 9 6 6 5 8 7 7 10 10 11 13 12 9 12 14 11 16 16 14 13 14 15 18 19 18 15 16 14 14 15 18 19 17 17 16 14 15 13 12 13 11 11 10 11 11 11 10 8 8 10 11 10 10 10 12 12 13 19 14 12 12 9 9 12 13 12 10 9 12 11 14 16 14 14 15 15 16 14 14 14 13 12 12 13 13 12 12 11
5 5 3 2 2 3 4 5 5 8 9 8 7 8 11 8 12 8 10 11 10 9 11 9 14 11 11 16 14 15 17 20 19 17 16 15 15 14 15 14 14 15 15 14 13 14 13 11 12 10 10 10 10 8 8 8 7 6 9 9 10 11 12 12 12 12 15 15 14 16 16 13 11 13 13 12 9 15 15 12 12 14 16 15 16 15 15 15 14 13 13 12 13 13 13 12 11
6 3 3 2 3 3 4 7 5 9 8 9 7 6 8 9 8 9 9 8 10 12 9 11 7 5 16 14 19 20 21 20 18 17 15 16 15 14 13 14 12 12 12 12 11 13 12 11 10 9 10 10 9 8 6 7 8 7 8 7 8 9 12 12 12 11 13 14 14 15 14 11 11 10 14 13 15 14 12 11 14 15 15 15 15 15 14 14 13 13 13 12 12 11 11 11 11
5 5 3 1 2 2 3 3 3 6 10 8 7 9 12 8 9 4 7 10 11 12 8 8 9 12 13 16 21 22 21 19 18 18 16 13 12 11 10 10 10 10 9 10 9 12 13 12 11 8 9 10 10 11 8 5 5 6 8 8 10 10 11 11 12 13 11 14 17 18 17 12 12 13 11 10 12 11 13 13 14 14 14 14 14 14 15 13 12 12 11 11 10 10 9 10 11
3 3 1 2 4 5 3 5 1 7 10 12 9 9 12 11 8 6 9 8 9 10 10 9 9 9 15 21 21 21 21 20 19 18 16 14 11 11 11 10 10 9 9 9 10 10 12 12 10 9 8 10 11 9 9 7 7 7 6 5 3 5 6 9 8 8 8 7 10 6 5 6 7 5 8 11 9 11 12 14 14 13 13 14 13 12 13 13 11 11 10 11 11 9 8 7 7
3 3 0 1 4 4 1 4 11 9 11 12 10 9 9 11 11 10 9 9 12 11 11 10 14 18 22 23 22 21 20 20 19 18 18 16 13 14 12 10 10 10 10 9 9 10 9 12 12 9 10 10 13 12 9 11 10 9 9 6 7 7 7 7 5 6 5 7 5 3 2 4 7 5 5 6 9 12 12 14 14 13 12 12 11 9 9 9 10 8 6 6 7 6 4 5 6
3 4 3 3 9 7 7 4 13 10 12 11 13 9 10 11 11 11 10 14 12 12 12 14 16 20 21 23 22 21 19 19 18 18 17 15 15 14 13 13 11 10 10 9 9 9 9 9 12 12 11 11 8 8 11 7 5 5 8 9 11 8 6 7 6 4 2 2 4 3 2 5 7 7 13 14 12 8 10 13 13 13 12 11 12 8 8 9 8 5 4 3 4 3 3 4 1
5 4 1 4 3 7 7 4 9 17 15 9 9 9 6 9 11 6 11 11 11 10 12 14 17 20 22 22 23 20 20 19 18 17 16 15 14 11 12 11 11 10 9 9 8 9 10 10 9 9 11 9 7 5 6 10 10 6 6 8 7 9 12 12 10 12 13 11 12 6 6 3 6 6 5 5 3 5 8 7 7 6 6 7 9 8 6 5 4 3 1 0 2 2 2 3 6
7 3 2 4 4 7 8 7 5 8 11 10 11 9 10 9 9 6 8 9 8 10 12 15 17 20 23 23 22 20 20 19 18 17 16 16 15 13 12 11 12 11 10 9 10 10 10 10 10 9 9 7 6 4 4 5 9 4 7 8 7 6 6 6 7 7 6 8 9 14 6 5 4 4 5 5 4 3 5 4 5 5 5 4 3 5 6 6 6 2 1 1 2 2 3 5 3
1 11 2 2 2 7 5 9 7 8 10 10 12 6 2 12 12 10 10 5 2 9 14 16 17 19 21 21 20 20 20 19 19 17 17 17 15 14 13 11 11 10 8 9 10 9 10 10 10 9 11 7 6 5 4 4 4 9 7 5 5 5 4 5 5 4 5 5 6 9 8 9 8 6 7 8 6 6 5 4 4 4 5 3 1 2 5 5 5 4 3 0 1 3 4 5 3
3 5 1 6 7 8 3 8 6 8 10 9 14 14 10 11 11 4 5 4 8 12 14 16 18 18 20 20 20 20 19 18 17 16 16 16 15 15 14 13 11 10 8 10 10 10 10 10 9 9 9 11 7 5 5 2 2 4 6 4 4 5 4 5 4 6 5 5 4 5 5 12 9 8 8 5 5 6 7 6 3 3 6 7 4 1 3 3 5 5 3 1 3 4 3 4 5
5 6 4 6 7 5 4 6 8 11 9 11 7 12 5 8 13 11 5 7 9 13 15 17 18 19 19 19 19 19 18 17 16 16 14 12 13 14 12 11 12 10 11 10 9 10 10 9 10 9 8 8 11 11 9 9 7 6 5 5 6 5 4 4 5 5 5 5 5 5 8 3 7 4 5 7 6 4 7 2 6 7 4 6 7 5 6 4 4 5 3 1 3 3 3 3 4
5 5 1 1 1 2 3 4 7 9 7 10 11 5 12 7 10 12 15 11 12 14 17 18 19 19 18 18 19 18 17 16 16 16 14 13 13 14 13 11 11 12 11 10 10 10 10 10 10 10 9 7 6 6 6 6 5 5 5 6 5 4 5 5 5 4 5 6 4 4 4 2 5 8 8 4 5 4 4 4 1 5 5 3 3 5 5 3 5 5 4 4 3 5 6 8 2
11 2 3 6 5 3 4 6 10 9 8 9 8 9 8 9 6 2 7 11 14 15 17 17 19 18 18 17 17 17 17 17 16 15 14 13 14 13 12 11 11 12 12 10 10 9 10 10 9 9 8 7 6 6 5 6 5 5 5 5 4 5 5 4 4 4 5 5 6 5 4 2 4 6 6 6 5 4 6 4 5 2 4 4 5 5 5 4 5 2 2 3 4 3 7 6 4
7 2 6 7 4 1 2 6 10 9 9 10 13 6 8 5 7 3 11 11 14 17 17 18 17 17 16 18 17 16 14 15 14 14 15 15 12 12 12 10 11 12 12 11 9 8 11 10 11 9 8 7 6 7 6 6 6 6 5 5 5 5 4 3 4 4 5 5 6 5 4 5 6 6 5 4 5 6 3 3 4 4 5 3 4 5 5 5 4 4 5 4 4 8 8 4 3
2 7 10 5 5 4 3 8 9 8 6 11 12 12 6 5 5 9 10 13 14 17 17 17 17 16 16 16 15 14 14 14 13 12 14 12 12 12 13 12 11 12 10 11 11 10 11 11 10 9 9 7 6 7 6 6 6 6 5 4 5 5 4 4 4 5 5 5 5 5 5 4 4 4 3 4 5 5 3 5 1 5 4 4 5 5 5 3 5 3 2 3 3 2 3 3 2
5 5 7 6 7 6 3 1 6 6 3 18 11 7 6 6 6 9 10 13 15 16 16 16 15 15 15 15 14 14 14 14 13 12 12 12 12 13 13 13 12 11 9 9 11 11 10 8 8 8 9 8 7 7 5 6 6 5 4 5 5 4 4 4 4 4 4 5 5 5 5 4 4 4 4 2 2 5 4 3 5 4 4 5 5 4 3 2 4 5 5 6 8 5 4 4 4
9 8 5 8 6 5 8 5 6 11 5 7 5 2 8 6 9 11 12 15 16 16 16 16 16 15 14 14 14 14 15 13 14 14 14 13 12 12 13 13 13 12 10 10 12 12 11 9 8 8 9 9 7 7 6 6 5 5 5 5 5 3 4 4 4 4 4 4 5 4 5 4 4 3 4 2 2 4 5 2 4 4 4 3 4 3 2 3 4 4 5 4 3 4 3 3 4
10 9 9 7 9 8 8 5 14 5 5 3 4 4 8 8 7 4 10 13 15 16 16 15 15 15 16 14 15 14 15 14 15 15 14 14 13 11 12 13 12 13 11 11 11 11 11 10 9 10 10 9 7 7 5 5 5 4 4 4 5 3 4 4 4 4 4 3 4 5 4 5 4 3 3 2 2 1 5 4 2 5 3 1 4 3 3 4 4 2 3 3 3 4 4 3 4
10 11 7 9 9 7 7 8 12 9 6 4 6 4 8 6 8 9 12 11 16 15 16 15 16 17 16 15 14 14 15 15 15 14 15 13 12 12 12 13 11 12 12 12 11 11 10 11 9 11 11 9 8 8 6 6 4 5 5 4 6 3 4 3 4 3 4 3 2 5 4 4 4 4 3 2 1 5 4 3 4 5 2 3 2 1 3 4 3 4 1 0 1 2 4 4 3
11 10 7 7 8 8 5 13 13 2 9 5 3 3 6 2 8 8 11 15 15 14 15 16 15 14 14 14 15 14 15 15 14 14 15 13 12 12 13 12 12 12 12 12 12 11 11 11 9 10 10 10 8 8 6 6 5 5 4 4 5 4 4 5 3 3 3 4 3 4 4 4 3 4 3 2 1 5 6 3 2 5 2 5 1 3 2 3 2 4 3 2 2 2 3 2 3
11 10 7 8 10 4 6 7 17 16 10 7 7 7 4 7 8 8 9 15 11 8 15 13 14 15 14 14 14 16 15 15 14 14 15 14 14 13 12 13 12 12 11 13 11 10 9 9 8 9 10 9 9 8 7 6 6 5 4 5 5 4 3 4 4 4 4 4 4 5 4 4 4 4 4 2 2 4 4 6 2 4 4 5 3 3 3 2 3 3 4 3 1 3 2 2 2
11 12 7 13 9 7 4 4 10 14 16 3 6 6 5 4 5 6 10 8 9 15 12 12 12 13 13 13 14 14 15 15 14 15 17 14 13 12 13 12 12 11 11 12 11 10 10 10 8 8 9 9 9 8 7 6 6 6 6 6 6 5 4 3 4 4 4 4 5 6 4 4 4 4 4 4 2 4 4 4 4 2 4 4 3 2 3 3 3 3 3 4 2 2 1 2 3
9 10 11 8 7 7 5 1 7 8 8 15 7 10 11 11 11 10 11 13 15 15 15 12 11 11 12 12 14 15 15 15 15 15 16 15 15 13 12 12 12 11 12 13 12 12 11 10 10 10 9 9 8 7 7 7 7 7 6 6 6 6 5 5 5 4 5 5 6 6 5 5 5 5 5 4 4 4 2 3 5 2 2 4 4 3 2 4 2 3 3 2 3 2 3 2 3
12 11 10 10 8 8 13 12 8 7 1 10 15 10 7 11 13 12 14 11 13 13 13 15 11 10 11 12 13 16 14 14 17 15 16 16 14 15 13 12 13 13 12 13 13 12 11 12 11 10 9 9 9 8 7 7 6 6 6 6 6 6 6 5 5 4 4 7 6 6 5 6 6 5 5 4 5 4 4 5 3 7 4 4 4 1 3 2 3 3 4 2 3 2 2 2 3
10 10 10 10 7 5 5 6 7 8 12 8 18 13 9 9 10 12 10 9 6 3 10 11 17 14 11 9 13 12 15 14 16 16 16 16 17 17 13 13 13 14 13 14 13 13 12 11 10 10 9 9 9 8 8 7 6 6 6 5 5 5 5 5 5 7 1 5 7 6 5 6 6 5 5 5 4 4 4 4 3 5 1 3 3 3 3 3 3 3 4 2 3 2 2 2 3
9 7 9 10 6 6 8 7 8 8 3 4 3 3 12 16 12 12 13 11 11 5 7 5 5 10 11 15 11 13 15 15 18 17 17 17 16 16 14 13 13 13 13 13 13 13 11 10 11 10 10 9 8 9 8 8 7 6 5 5 3 4 5 4 4 8 7 7 7 6 5 6 6 6 6 5 5 5 5 3 2 5 5 2 2 3 3 3 3 3 3 2 2 3 3 3 3
10 10 7 7 11 9 6 8 9 8 7 6 7 5 11 15 14 14 11 11 14 13 8 10 7 5 5 0 8 13 14 15 17 18 17 17 16 17 15 14 14 13 14 14 13 13 10 13 12 11 10 10 9 9 9 8 7 6 5 4 3 3 4 5 5 5 4 4 5 7 7 6 6 6 6 6 5 6 6 6 4 4 4 4 3 3 3 4 4 4 1 2 1 1 3 2 2
9 13 10 8 10 14 3 7 9 7 7 7 10 2 8 11 13 11 14 13 12 14 12 10 10 9 7 6 3 11 10 13 15 17 18 18 17 16 16 16 15 14 14 14 14 14 13 13 13 12 9 9 9 11 10 8 8 7 7 6 6 5 5 5 5 5 6 6 6 7 8 7 7 6 6 5 6 5 5 5 5 5 4 3 3 2 2 3 2 4 4 3 2 2 2 3 3
12 10 10 10 13 12 12 8 9 9 8 13 13 6 9 8 11 8 5 8 16 9 11 13 9 9 9 7 7 11 16 14 14 15 17 18 18 17 17 16 16 16 14 14 14 14 14 14 14 13 10 9 10 11 11 8 9 8 9 8 6 6 5 5 4 4 4 4 5 7 7 7 6 6 7 6 6 6 5 4 4 5 4 4 3 3 3 4 4 3 4 2 2 3 1 1 1
11 8 12 6 7 11 10 8 10 6 6 10 9 9 6 7 7 6 3 7 8 14 13 8 7 9 10 8 9 11 9 13 13 16 17 17 17 17 18 17 16 16 15 15 14 14 14 14 14 14 11 11 10 11 12 10 9 8 9 8 7 7 7 5 5 4 4 4 4 6 6 6 6 5 6 6 6 6 5 5 5 4 4 5 4 4 4 4 4 2 2 2 3 2 2 1 1
7 16 17 14 11 9 9 8 8 8 7 9 9 11 8 5 4 3 6 9 5 6 6 13 11 6 6 8 11 10 10 5 11 15 16 17 17 17 17 17 17 16 16 15 14 14 14 14 14 14 13 12 11 13 12 12 9 9 8 8 6 6 6 5 6 5 4 4 5 4 5 6 6 4 5 7 6 6 5 5 5 4 4 3 4 4 3 3 4 3 3 2 2 2 2 2 1
5 11 1 8 12 12 12 9 9 10 9 9 11 13 7 5 6 7 3 6 8 6 9 7 6 18 13 11 11 12 9 3 10 11 16 15 16 17 17 17 17 16 16 15 15 14 15 14 15 16 14 12 12 13 12 13 11 9 8 9 8 6 5 5 5 6 5 4 5 4 4 4 6 6 5 6 6 5 5 5 5 5 4 4 4 3 2 4 3 4 3 3 3 2 1 2 2
7 8 6 10 9 10 10 9 9 9 11 11 12 16 10 4 3 3 6 5 2 3 5 5 5 7 10 13 9 6 8 8 10 15 11 14 14 15 16 17 16 16 15 16 15 15 16 15 16 17 15 12 13 14 14 13 12 10 9 10 10 8 7 7 6 6 6 6 5 6 5 4 4 6 6 6 6 6 6 5 5 5 4 4 2 2 3 4 5 5 4 3 3 3 3 2 1
5 7 9 7 8 8 8 8 9 11 11 12 12 11 12 7 8 1 5 3 4 5 7 6 6 4 6 8 9 12 13 14 16 10 12 13 9 12 14 15 17 16 16 16 15 15 15 15 16 17 16 14 14 14 14 13 12 12 11 11 10 9 9 7 7 7 8 7 7 6 5 5 5 5 5 6 6 7 6 5 4 4 3 3 3 3 2 2 3 4 3 3 3 3 3 2 3
6 8 10 10 8 9 10 9 12 12 11 9 11 13 12 6 7 8 9 6 7 7 7 8 7 5 3 2 8 12 11 14 10 9 7 8 13 13 13 13 15 15 15 15 16 15 15 16 17 17 16 16 15 15 15 14 13 12 11 11 11 10 9 8 8 7 7 7 7 6 6 6 5 5 5 5 6 7 6 5 5 4 3 3 2 2 1 0 1 1 3 3 3 3 4 4 3
10 11 10 10 10 10 9 10 7 9 11 10 13 15 4 8 8 9 8 7 9 8 9 9 8 7 5 4 5 8 8 6 9 10 8 10 8 8 11 8 11 13 15 15 16 14 14 14 16 17 17 16 15 15 15 15 14 13 12 11 11 10 10 9 8 8 8 7 6 7 7 7 6 6 6 5 5 6 6 6 5 5 3 3 3 2 1 2 1 1 2 2 4 3 3 3 3
12 10 10 11 8 8 10 10 12 12 9 12 9 13 11 12 9 9 10 9 9 9 10 9 7 8 7 6 6 5 14 5 4 8 8 10 11 10 8 7 8 6 11 15 14 15 14 14 16 17 17 17 16 15 14 16 14 13 12 12 11 10 10 9 9 8 8 8 8 8 7 7 6 6 6 5 5 5 6 6 6 5 5 4 4 4 4 3 3 3 1 2 2 3 3 4 4
11 11 9 11 11 6 10 8 10 11 11 13 11 3 4 7 11 9 9 9 10 10 11 10 10 8 9 9 8 7 10 11 4 5 10 12 12 10 9 11 11 12 14 11 13 15 15 14 16 17 17 18 17 16 15 15 14 13 13 13 12 11 9 10 8 8 8 8 8 8 8 7 7 7 6 6 7 5 5 6 6 6 5 6 5 5 4 4 4 4 3 3 4 2 3 4 4
11 10 11 9 7 11 9 10 12 11 11 12 7 10 11 13 10 11 10 9 10 9 11 11 11 9 9 10 9 7 7 7 8 5 5 7 9 11 11 13 13 12 11 11 13 14 15 15 16 17 17 16 17 16 15 14 14 14 15 14 13 12 12 12 11 12 11 9 8 8 8 9 8 7 8 7 7 7 6 6 6 6 6 6 6 6 6 5 4 4 5 4 4 4 3 3 4
6 13 11 6 6 7 7 10 10 13 14 11 15 12 12 12 8 10 10 10 10 8 10 10 11 10 10 11 11 9 7 5 2 8 6 8 9 10 12 8 11 12 14 14 10 11 11 15 16 16 15 15 16 17 16 14 14 14 14 15 14 14 13 13 12 12 11 10 9 8 9 8 9 9 7 7 8 9 7 8 6 6 7 7 6 7 7 6 5 5 5 5 5 4 3 3 4
9 4 13 9 10 8 8 7 11 13 13 10 14 15 9 10 8 9 10 10 10 9 7 9 11 11 12 11 12 11 9 7 4 3 8 8 8 8 9 11 12 15 15 15 15 15 15 14 13 16 18 18 18 16 15 13 14 12 12 14 15 14 13 12 12 10 11 11 11 11 10 9 10 10 9 7 9 10 9 8 7 8 7 7 7 7 7 6 7 6 5 5 6 5 5 4 4
11 7 8 8 6 8 10 9 5 9 11 12 14 15 6 1 8 5 9 7 5 8 6 8 11 12 12 11 12 12 11 10 10 8 3 4 6 10 8 11 9 5 11 13 14 12 15 13 15 16 16 17 18 15 15 15 16 14 13 13 14 13 13 12 12 11 12 12 12 11 11 11 10 10 10 11 9 9 9 10 9 9 9 8 8 8 7 7 7 6 6 6 5 7 6 6 5
10 6 9 9 7 4 7 10 10 9 11 13 10 11 9 9 8 8 8 5 5 5 7 6 8 10 11 13 12 12 12 11 10 10 7 5 3 9 10 9 10 9 4 5 3 5 7 13 17 17 16 18 16 16 16 15 14 14 14 15 15 14 15 13 13 13 12 12 11 11 11 11 10 10 10 11 11 9 9 10 10 9 9 8 8 8 7 6 7 7 6 6 5 6 7 6 6
4 11 10 4 8 10 8 8 9 13 9 8 12 9 10 10 6 8 7 7 5 5 4 7 9 10 11 11 13 13 12 12 11 11 9 8 8 5 9 5 6 10 9 8 4 4 15 22 13 13 14 14 15 17 17 16 14 14 15 15 15 14 14 13 14 14 14 13 12 11 11 11 12 11 11 11 12 12 11 10 10 10 9 9 8 8 9 8 7 8 8 7 7 7 6 6 6
Wind_Direction
175 195 194 208 222 205 207 198 248 200 207 223 182 138 93 76 120 116 126 140 100 72 86 107 99 66 54 101 90 76 51 54 16 214 112 127 133 141 140 133 139 135 135 130 129 132 138 152 156 167 134 127 124 121 120 117 114 113 113 110 103 97 91 94 102 90 91 93 91 92 90 87 86 85 80 76 76 80 79 90 98 89 92 84 76 77 79 80 80 91 103 102 101 107 111 106 103
186 198 210 132 225 232 213 195 261 196 226 266 90 154 109 131 171 126 103 91 114 128 118 95 89 82 93 114 102 83 57 49 80 88 101 122 130 128 133 137 137 134 131 134 137 136 143 145 147 140 132 125 122 120 119 118 118 114 112 103 101 100 96 92 90 90 94 96 89 90 91 92 93 89 83 83 87 78 76 84 87 89 85 94 108 105 94 95 104 104 102 97 99 103 107 110 108
204 194 193 162 216 231 347 258 266 18 205 154 94 88 109 108 116 126 125 127 123 124 107 101 98 83 90 67 79 77 73 84 94 99 109 131 131 131 138 133 131 128 130 131 129 132 131 130 141 131 128 125 122 122 121 120 117 113 106 105 107 108 103 99 97 101 100 96 97 96 96 92 89 87 89 88 85 84 90 88 88 90 91 94 93 88 95 99 101 105 111 109 108 106 101 103 107
300 212 187 198 222 171 231 200 211 229 206 106 108 112 127 122 108 94 111 121 131 121 120 111 89 334 88 101 92 94 98 93 98 114 123 139 135 139 139 132 136 131 130 131 134 126 127 130 134 130 127 127 126 123 121 121 120 113 109 111 109 111 104 96 100 99 95 97 102 102 97 87 89 91 95 95 94 95 89 85 88 89 93 99 102 100 93 95 99 102 105 109 109 109 106 100 99
241 214 214 236 256 218 224 248 219 251 148 206 124 120 114 124 127 129 121 137 125 116 105 101 96 73 68 79 90 89 103 110 113 114 125 133 137 150 145 137 141 130 129 132 130 123 124 125 132 130 130 129 126 123 124 124 120 113 110 110 111 105 99 97 91 94 97 101 102 102 101 101 97 97 94 93 95 98 96 95 91 94 97 102 106 102 99 90 91 95 102 106 107 110 109 107 103
211 218 189 222 226 340 274 262 164 165 145 110 108 113 107 125 135 131 133 117 114 115 118 117 110 111 81 60 83 107 126 120 117 119 125 130 139 137 130 123 126 127 124 118 112 125 129 131 136 134 132 132 128 126 127 127 121 115 114 112 103 101 100 100 104 104 104 105 107 108 105 102 98 93 98 100 101 102 99 97 97 100 94 91 98 98 99 106 103 103 102 103 106 107 108 108 107
189 209 211 230 276 222 261 334 94 293 43 29 116 117 124 129 135 135 123 125 111 110 140 110 107 114 105 98 84 87 96 105 122 128 132 129 131 134 119 122 124 123 127 124 131 123 124 135 133 136 135 130 129 129 129 126 117 114 117 106 103 103 100 106 108 108 107 108 109 108 104 102 102 101 100 101 105 104 97 94 94 94 91 88 90 100 100 101 105 109 111 110 108 112 111 108 110
243 254 20 257 260 217 209 156 97 119 80 79 73 120 134 142 138 133 134 135 133 132 128 117 106 91 83 99 97 109 119 124 119 130 126 132 134 132 125 129 127 122 124 120 120 116 125 132 133 133 133 136 132 130 128 119 116 119 113 111 109 110 106 107 113 115 105 101 107 107 102 100 101 103 101 103 103 109 101 103 99 94 96 103 106 100 100 101 101 102 100 102 104 102 104 107 109
214 240 131 264 263 235 355 27 116 90 110 104 89 99 139 144 135 135 136 126 135 123 121 113 99 94 98 104 96 103 104 116 123 126 132 135 131 119 124 129 133 129 126 123 121 126 128 132 136 136 141 135 129 127 125 121 121 117 117 117 117 116 116 112 108 108 106 109 108 106 107 109 109 103 101 104 103 104 102 101 100 95 98 97 92 97 100 101 101 102 106 105 102 103 106 110 112
250 200 237 261 20 303 180 202 115 85 99 97 118 127 136 134 134 140 131 137 130 133 117 99 111 103 113 104 110 115 115 124 128 131 132 134 129 126 125 129 128 127 128 129 128 128 127 141 141 149 133 130 128 127 122 124 123 124 123 124 125 120 115 115 103 101 99 112 113 107 107 109 113 112 112 101 96 95 97 100 105 108 106 99 107 99 96 102 106 108 110 117 117 113 113 112 110
266 200 237 275 65 223 167 106 108 113 105 114 115 113 133 158 151 132 142 130 138 118 111 116 120 109 104 100 97 110 121 132 133 133 134 131 135 127 128 128 128 127 131 132 130 129 136 141 146 140 131 106 92 95 119 120 125 126 126 131 127 123 119 120 114 106 97 102 112 113 109 111 112 118 117 107 105 106 109 113 101 89 85 109 118 107 99 105 107 108 109 110 111 112 107 106 107
241 263 235 298 10 205 129 119 116 110 120 125 114 162 236 170 159 139 140 141 135 126 124 146 114 120 113 114 116 127 133 135 135 135 136 138 138 130 127 128 128 127 131 132 138 137 141 140 138 132 111 108 106 111 120 121 130 129 128 127 126 125 122 123 123 126 112 70 103 111 109 111 111 113 106 108 111 121 125 110 98 98 138 136 125 112 117 110 105 104 105 106 108 105 107 105 103
276 335 319 301 220 255 124 124 110 121 128 132 145 198 249 159 158 138 146 135 133 126 115 113 134 125 115 117 124 135 138 135 137 137 137 140 133 133 133 130 130 129 129 133 134 149 137 138 129 121 114 111 116 122 118 120 129 131 126 128 130 130 128 120 121 119 116 140 103 91 108 117 117 112 106 109 115 99 86 93 115 153 150 120 105 98 98 101 103 104 101 102 104 103 103 104 108
252 273 277 332 223 168 163 104 141 135 115 124 119 127 185 168 140 154 140 144 127 119 112 130 131 111 106 117 136 143 136 138 137 139 140 134 136 133 132 134 138 146 151 150 155 138 131 118 117 120 124 123 121 124 119 118 126 130 128 129 131 128 128 123 121 119 127 134 134 122 122 130 118 117 116 102 100 106 122 153 159 150 123 104 102 103 101 97 94 97 100 102 104 105 104 103 102
249 287 303 35 267 202 99 134 132 125 124 145 145 181 165 185 143 156 143 122 129 131 125 120 114 136 140 143 145 145 144 142 141 141 135 135 135 131 131 128 132 132 133 133 131 127 103 122 117 127 128 130 127 126 131 120 121 133 130 129 138 135 132 130 127 124 132 134 130 137 131 126 118 115 114 125 157 144 150 147 122 99 90 89 91 92 94 92 92 96 103 104 103 104 105 106 109
245 237 50 313 231 140 109 123 134 124 132 160 155 170 161 136 143 145 140 137 128 124 149 122 168 107 150 143 143 141 141 142 142 137 137 138 131 131 132 132 130 126 124 132 135 118 123 123 132 135 134 135 134 125 121 123 126 149 131 139 130 131 137 132 131 134 128 134 128 121 121 119 123 122 144 157 157 136 122 113 103 95 94 97 98 96 90 95 101 102 102 102 108 109 108 109 111
270 21 327 56 136 134 71 49 141 115 135 167 167 195 147 132 58 1 130 129 144 131 135 126 97 138 144 134 137 140 141 140 139 138 138 135 139 136 137 134 132 130 130 132 131 124 130 132 140 133 137 137 130 127 116 121 130 147 140 147 136 141 139 138 137 132 137 143 147 143 151 151 160 153 161 129 120 107 108 105 100 100 99 99 99 100 99 98 99 104 105 110 109 111 116 115 113
260 355 316 38 39 33 106 146 143 109 137 146 175 173 145 138 139 155 125 130 131 133 125 111 124 125 125 127 135 138 139 141 142 144 144 143 146 144 144 139 143 138 137 134 132 133 133 134 138 136 141 147 136 135 127 142 154 163 140 118 88 104 132 145 140 144 154 149 148 142 148 149 127 119 121 115 108 109 104 101 100 101 103 105 109 106 100 106 106 107 111 112 118 131 149 123 120
233 122 99 67 150 127 179 110 126 142 157 148 145 155 154 144 151 157 137 161 144 137 124 119 109 113 120 133 136 139 144 145 150 148 148 148 151 148 145 143 144 142 141 137 136 137 137 136 143 149 149 160 148 142 145 147 160 150 137 144 136 179 161 157 154 153 156 156 154 143 164 135 109 112 89 89 97 98 103 103 103 102 104 106 105 104 104 101 108 110 108 110 114 152 215 119 126
6 154 189 100 101 137 175 133 124 176 149 158 152 139 170 152 155 167 154 149 148 142 137 132 127 129 135 136 142 145 149 150 151 150 151 151 148 150 143 149 144 146 143 143 139 140 142 142 149 150 154 157 146 144 142 136 125 152 159 155 148 167 180 156 159 162 177 198 154 134 137 118 112 114 113 110 109 108 108 105 105 111 114 120 127 120 115 106 104 100 86 107 159 185 118 94 39
271 225 178 97 133 134 118 161 126 166 152 154 129 134 131 171 137 166 141 155 149 143 142 143 138 139 139 144 144 149 152 153 155 153 151 151 148 147 146 148 145 143 142 139 141 141 140 142 144 141 145 131 137 141 139 140 149 175 172 168 174 177 160 170 167 160 158 191 138 149 141 125 105 91 96 88 55 115 122 129 136 133 143 137 154 126 132 136 146 116 113 329 107 127 123 124 213
224 258 278 156 170 95 122 131 159 136 136 147 134 144 156 175 125 119 148 158 145 145 150 142 142 143 144 147 146 151 153 154 154 156 153 153 152 148 149 144 141 145 141 147 144 143 144 145 145 148 127 121 141 141 148 139 143 151 181 179 191 158 133 132 141 151 156 147 137 136 137 103 57 127 145 123 123 133 145 146 124 135 134 111 121 110 113 124 128 139 109 339 280 117 189 195 165
306 240 155 45 111 98 203 133 128 154 149 155 145 144 206 161 133 148 147 169 185 128 137 140 144 147 145 145 148 152 155 158 156 161 156 156 155 149 150 146 147 139 150 139 142 145 145 148 145 150 135 149 145 139 157 146 178 179 165 147 142 128 122 129 119 114 93 86 118 121 129 124 157 172 132 122 152 159 164 158 130 123 118 139 84 126 107 105 112 120 108 165 296 321 96 75 96
162 294 29 95 325 65 329 89 154 128 137 174 132 170 184 149 107 148 94 176 228 129 132 140 142 145 147 148 152 153 156 159 157 158 160 153 153 150 153 149 144 142 145 142 145 145 150 147 149 151 137 145 148 166 154 177 218 168 118 146 143 106 130 119 111 98 107 91 64 90 151 135 162 137 131 150 185 152 152 132 132 111 165 168 123 112 113 114 105 108 100 25 351 334 83 118 103
209 198 235 78 242 92 141 150 158 134 166 120 141 163 147 62 132 126 143 174 155 134 128 136 142 147 148 151 153 151 157 158 158 155 159 150 155 152 148 140 141 148 141 151 146 146 150 143 154 145 150 153 147 165 163 170 195 135 147 135 112 149 120 106 107 121 109 93 72 55 55 19 98 61 86 130 115 75 65 112 155 202 122 82 147 149 106 125 115 93 86 107 24 354 346 317 118
248 324 300 9 335 120 88 163 148 153 155 143 151 164 102 122 137 144 171 138 144 136 135 141 145 152 152 154 153 153 158 156 160 156 158 154 155 153 153 150 142 157 144 151 152 146 146 155 155 150 153 152 149 151 142 132 132 131 125 120 121 124 103 108 124 117 112 103 94 77 95 103 85 104 91 347 107 122 149 92 45 103 89 117 88 101 112 82 80 116 171 132 119 44 345 288 335
241 160 264 269 52 220 163 200 162 159 150 152 139 135 123 149 148 299 145 147 134 142 136 144 149 151 155 153 152 154 161 154 163 158 154 158 152 158 152 148 153 148 146 154 147 153 143 156 152 148 147 151 153 142 137 128 126 127 124 125 130 110 116 135 126 110 100 96 97 92 85 52 86 92 114 144 103 125 129 165 79 40 139 122 105 101 124 123 87 106 82 72 82 110 243 220 150
225 271 229 232 164 270 184 160 152 167 146 179 114 115 113 99 82 177 136 147 145 144 141 148 153 150 155 155 151 153 162 157 160 164 157 159 155 161 157 153 158 148 150 156 146 154 150 157 148 151 145 152 152 143 136 134 136 128 135 128 122 113 136 118 98 92 87 92 102 98 75 58 67 85 83 82 94 89 26 110 146 104 82 93 87 83 87 92 149 117 106 100 191 186 215 158 176
177 208 237 152 212 143 210 160 159 179 142 114 127 104 97 190 164 177 148 149 152 146 144 152 153 149 157 151 150 159 159 162 161 165 161 158 160 163 162 158 159 148 155 151 147 161 152 156 143 149 147 148 161 143 142 139 136 142 138 126 116 138 136 120 118 100 97 108 99 89 87 78 99 98 73 117 134 114 125 96 144 114 110 113 96 63 79 100 101 97 156 132 272 197 198 131 177
234 203 280 169 196 172 151 128 147 114 115 114 185 163 162 180 166 154 186 157 152 150 149 152 152 153 155 155 151 163 156 161 167 163 161 158 166 163 163 162 155 151 152 144 154 162 151 145 146 154 147 154 160 142 154 149 150 141 141 129 131 161 129 121 115 114 119 120 114 109 103 101 82 104 112 65 315 122 102 83 101 100 89 81 106 131 104 197 145 154 132 173 213 183 166 170 162
228 183 203 237 168 202 164 197 116 74 258 108 190 169 146 163 191 187 189 164 160 155 158 157 154 153 154 157 157 162 155 167 166 163 165 159 168 165 163 160 157 150 148 155 157 154 154 145 156 147 154 150 164 133 165 144 159 140 141 136 140 165 133 140 123 125 145 119 128 115 114 104 97 83 82 79 44 77 104 142 111 111 115 127 110 90 178 170 137 161 188 163 184 169 147 152 141
232 200 198 228 232 134 157 178 108 133 129 181 205 137 144 190 187 235 158 180 163 158 160 163 157 156 156 160 159 166 158 167 169 166 166 163 168 165 165 155 166 146 156 154 153 152 154 146 163 145 155 150 153 142 158 151 153 145 132 134 137 166 145 126 131 131 120 135 121 117 120 114 107 109 106 67 94 133 98 113 353 95 136 126 105 126 202 163 145 161 144 174 197 132 152 150 125
216 231 197 223 218 149 175 166 122 147 119 167 287 100 125 158 205 194 218 178 168 161 160 163 161 158 161 157 163 165 161 165 169 169 165 165 166 164 163 157 169 148 155 155 153 152 156 147 172 147 158 152 148 153 151 154 152 139 140 156 136 170 139 123 131 146 124 126 107 124 130 129 120 122 115 141 239 103 60 101 138 114 94 136 108 170 193 130 179 144 197 342 75 160 150 134 121
203 211 239 221 201 170 193 123 115 127 135 169 129 123 92 148 204 193 215 185 165 167 163 162 163 157 164 160 165 166 163 165 171 168 165 168 164 165 163 157 162 154 151 156 159 156 162 150 175 152 148 160 150 152 156 157 154 146 158 153 148 177 165 142 152 130 147 126 150 112 125 133 137 131 129 143 358 93 117 17 130 141 111 71 203 176 214 157 161 126 142 165 159 248 94 162 127
200 197 207 232 240 164 120 182 143 166 147 175 123 85 81 167 172 201 202 213 152 183 161 164 160 158 166 167 164 167 165 168 169 169 164 169 163 166 162 158 163 161 156 157 163 153 157 155 165 147 151 159 152 151 154 165 148 169 168 159 156 175 198 134 150 158 138 141 141 119 137 141 138 144 133 132 138 83 86 173 141 133 146 149 188 178 165 161 153 149 153 131 301 297 112 80 97
217 212 150 234 205 137 202 158 144 180 147 152 139 136 154 143 212 220 236 209 159 192 159 157 160 162 168 169 167 169 166 170 166 173 164 172 163 168 158 165 162 163 161 148 158 159 156 155 161 155 161 155 152 154 162 166 166 176 171 174 158 184 170 161 155 157 150 141 125 142 146 133 137 144 144 143 136 137 148 133 145 131 153 149 178 174 134 146 141 146 137 155 185 177 146 143 132
231 236 195 244 197 97 77 233 210 185 189 148 186 157 153 186 178 207 209 198 207 170 143 157 160 161 170 171 165 168 167 168 168 173 165 172 163 168 161 167 162 166 159 150 163 163 163 161 160 163 168 156 159 165 171 172 174 178 178 184 172 170 175 162 176 156 157 132 135 128 147 132 143 145 147 151 134 123 160 138 128 153 115 94 20 277 114 97 129 149 136 193 192 211 160 179 119
230 222 222 224 213 166 152 176 189 175 114 124 164 168 191 165 190 184 219 188 175 167 161 153 143 175 171 170 169 169 169 166 166 171 168 174 166 170 164 168 166 166 165 159 167 167 168 165 165 164 169 168 164 171 172 174 178 184 179 186 174 166 166 171 174 162 141 126 133 141 151 133 145 149 157 155 140 145 149 135 167 125 216 130 170 116 116 130 153 169 157 171 235 170 123 165 102
218 234 195 219 204 117 101 140 177 159 151 183 152 163 195 182 211 156 190 173 188 113 161 158 161 179 172 164 166 171 170 169 165 173 172 174 170 171 168 170 172 171 169 166 169 168 169 169 167 167 172 172 171 168 172 177 179 185 188 182 179 164 166 172 148 123 163 158 148 148 138 143 151 152 155 157 153 152 142 138 139 93 347 173 155 154 153 165 187 162 177 203 142 121 136 89 143
223 226 197 205 174 184 182 155 181 144 226 180 198 204 152 154 185 174 186 170 140 196 158 123 181 178 155 176 173 175 176 175 173 173 176 175 170 171 170 172 173 170 172 169 173 170 170 173 169 174 169 175 172 167 177 173 177 175 205 185 191 154 167 149 129 142 169 163 145 144 146 152 165 155 159 162 155 152 120 94 184 149 172 128 155 153 168 168 162 173 196 153 229 162 155 134 117
219 239 213 206 196 223 255 151 166 160 147 118 170 241 155 149 180 168 179 161 135 152 171 151 151 179 197 206 187 164 183 177 174 174 177 175 175 172 174 173 173 175 175 172 178 173 175 172 172 173 172 176 171 167 176 170 169 171 177 196 169 130 154 160 163 168 166 146 155 161 151 160 165 160 156 159 158 156 144 165 196 155 147 165 160 167 182 164 173 173 158 146 271 104 126 116 106
214 222 235 218 214 212 119 134 192 194 168 171 186 225 161 159 159 155 165 153 139 147 165 157 168 168 166 207 298 188 185 183 182 178 178 177 179 172 176 174 178 178 177 176 180 175 175 172 170 174 173 176 172 168 175 172 173 173 174 178 180 176 169 177 186 177 174 168 179 161 150 163 162 159 155 159 151 160 161 160 170 154 155 171 185 190 165 143 204 170 166 175 120 62 33 144 138
220 191 207 229 219 226 169 203 218 218 207 159 189 229 126 87 91 79 96 137 134 187 160 162 173 164 183 190 187 222 177 185 187 182 183 180 180 178 176 178 179 179 177 177 181 175 176 169 170 176 173 175 174 169 177 173 174 182 183 182 188 184 181 183 190 178 171 181 157 148 147 160 166 165 156 157 153 155 162 167 169 169 161 164 184 176 192 194 172 180 159 132 103 78 74 83 88
223 182 199 228 258 223 200 202 226 233 87 139 187 221 164 148 112 90 76 108 137 155 161 172 157 166 178 181 201 215 187 175 190 185 183 185 182 180 179 179 183 180 177 176 181 174 176 169 171 175 173 178 176 169 180 177 177 184 186 192 193 194 184 180 179 185 171 178 139 148 156 155 164 179 153 151 156 162 165 171 178 189 178 162 177 195 200 187 133 148 149 120 87 115 99 39 9
211 220 192 199 211 216 236 232 234 232 202 183 201 216 162 179 78 98 168 131 81 95 121 146 175 220 196 198 195 209 231 213 182 189 185 186 183 185 181 181 184 182 177 179 180 174 173 171 172 175 175 176 178 172 178 181 182 183 186 191 193 203 186 182 178 184 171 170 151 148 159 153 160 175 162 159 169 165 179 164 190 180 191 163 189 187 202 132 160 158 166 167 170 147 202 96 240
102 22 168 206 211 227 238 236 231 232 238 224 207 191 200 117 134 194 155 125 148 142 121 128 164 147 184 221 200 186 203 159 294 212 186 185 184 185 184 183 187 186 178 179 179 174 173 172 173 176 176 179 176 174 181 180 185 182 186 192 193 193 194 183 191 172 174 174 166 158 156 155 170 172 167 172 166 179 178 180 187 190 189 179 207 157 147 133 158 168 186 192 184 171 172 187 189
54 178 189 211 218 220 219 230 227 229 230 224 224 193 194 141 329 213 215 89 355 90 96 72 118 108 149 174 168 203 202 201 207 218 169 189 186 187 185 187 188 188 183 180 182 177 175 174 174 177 176 177 174 177 180 182 186 186 186 190 194 190 189 189 188 176 182 173 184 176 173 175 190 176 178 170 176 185 178 190 207 178 212 146 214 145 184 179 173 173 180 161 183 200 185 205 230
145 197 197 184 204 218 217 222 224 226 222 221 224 222 196 183 168 272 65 97 38 41 59 65 40 79 146 162 167 183 194 202 201 197 187 148 210 190 191 192 189 191 189 183 185 180 178 176 174 177 177 176 176 178 181 182 186 187 188 188 193 193 189 190 191 186 183 183 187 182 180 178 193 183 197 169 185 186 170 190 214 190 196 178 182 211 186 192 166 153 154 169 178 202 200 230 238
183 209 209 203 189 197 204 202 215 221 230 205 216 212 202 204 129 156 128 67 89 57 51 49 52 66 87 169 172 147 212 169 184 173 195 190 172 188 203 194 196 191 195 188 188 186 181 179 177 177 178 178 177 179 181 184 185 188 189 189 190 194 193 192 191 193 190 191 190 185 186 188 186 193 198 189 187 186 169 183 195 201 181 203 202 196 225 214 359 136 139 193 173 187 202 203 214
206 213 203 207 197 191 209 208 220 220 221 231 211 214 179 109 103 136 108 96 77 71 69 52 53 50 33 71 164 153 196 186 174 170 188 194 204 203 173 181 206 199 195 192 193 192 184 183 181 182 178 180 178 180 180 183 186 188 190 190 190 191 195 198 193 197 194 194 194 196 194 193 191 196 195 196 192 187 178 178 186 192 188 191 193 199 177 200 203 242 170 213 193 189 210 212 237
212 220 207 221 214 195 210 210 204 216 215 216 176 209 145 174 146 129 108 99 85 77 68 70 56 52 46 38 23 69 127 215 155 178 181 206 201 200 199 179 179 201 222 196 195 193 187 183 181 183 181 181 180 182 181 183 184 188 187 192 191 191 195 199 201 198 195 199 199 197 198 197 195 193 202 190 207 188 189 177 183 191 184 190 193 200 208 192 187 226 229 213 255 180 212 222 217
199 215 233 219 223 189 240 207 220 206 211 201 192 175 113 144 127 118 127 119 87 81 75 67 63 47 45 40 36 28 88 123 262 227 194 192 189 195 200 196 201 190 200 218 201 193 193 188 183 184 182 181 180 181 182 184 184 184 185 189 193 194 195 198 200 200 200 199 195 198 196 197 198 189 202 185 197 197 194 193 186 198 192 188 196 203 209 208 196 208 217 209 232 202 203 221 242
168 215 213 224 252 248 228 231 217 219 223 216 167 122 114 119 146 149 132 113 95 83 83 64 53 55 50 47 37 29 40 109 163 209 229 224 203 193 202 192 202 197 207 194 219 209 198 187 184 189 187 185 185 182 183 184 183 183 186 189 191 194 195 200 200 198 203 197 195 200 196 196 201 197 191 188 192 191 200 205 203 200 190 200 198 201 205 211 199 210 211 212 222 226 202 225 248
242 203 206 195 10 285 295 239 200 214 208 199 175 150 151 170 137 153 131 120 109 90 66 69 56 48 46 47 41 33 23 61 180 165 184 200 211 206 204 194 203 202 201 203 215 215 203 193 187 187 186 191 188 185 184 185 184 185 186 189 192 195 196 201 206 197 203 196 196 198 202 191 199 203 200 184 189 192 199 201 202 211 197 200 206 201 202 207 207 220 216 215 219 234 224 224 236
292 313 359 252 185 226 232 283 204 212 208 209 176 157 168 191 141 163 157 128 110 94 79 64 58 50 47 44 43 37 33 22 40 150 156 156 199 179 212 196 204 211 206 209 201 202 202 200 194 188 192 191 193 190 188 187 187 189 188 189 191 194 198 201 204 205 198 204 203 196 206 198 196 197 194 205 194 192 194 195 204 205 202 200 200 210 197 207 207 219 217 217 211 214 227 225 230
237 265 236 237 285 215 208 226 236 211 204 221 167 159 173 122 128 121 104 106 83 86 72 65 58 50 47 45 36 36 32 27 24 4 37 102 147 154 199 210 214 231 232 213 214 212 206 195 193 198 195 193 192 192 187 189 190 195 188 188 191 192 197 200 201 203 204 203 208 204 201 203 204 198 194 196 211 197 193 197 195 208 203 199 200 205 203 200 210 216 221 222 204 204 220 229 235
205 236 224 193 243 283 255 212 244 214 217 217 185 172 124 107 105 114 105 74 82 89 94 76 65 52 51 45 40 36 35 32 31 21 25 48 12 161 188 218 191 197 287 304 173 229 252 220 206 199 193 198 195 197 192 191 192 194 191 189 189 191 194 198 201 200 206 205 204 211 204 207 198 209 199 193 203 205 200 200 206 200 209 196 201 205 205 203 203 211 222 232 238 214 215 221 227
317 211 222 204 212 222 200 236 226 245 224 226 228 177 123 123 152 115 115 111 108 84 103 77 59 59 50 47 45 38 36 36 25 15 19 28 39 67 137 193 176 177 187 210 263 249 231 219 189 197 202 200 200 198 198 191 194 191 195 191 194 190 194 196 200 199 205 204 206 203 209 208 205 201 209 201 196 203 205 203 209 203 207 204 195 205 211 204 205 205 215 213 219 230 227 230 235